Location: Driftpile
(55.3500°N, 115.7667°W)
Time: 08:24:02
(UTC+00:00)

N. Korean satellite - Pass Details

Date: 30 November 2021
Orbit: 447 x 490 km, 97.3° (Epoch: 26 January)

Event Time Altitude Azimuth Distance (km) Brightness Sun altitude
Rises 12:58:26 0° 16° (NNE) 2,491 10.3 -22.4°
Reaches altitude 10° 13:00:31 10° 21° (NNE) 1,605 9.3 -22.1°
Maximum altitude 13:03:55 58° 101° (E) 537 7.0 -21.6°
Drops below altitude 10° 13:07:15 10° 182° (S) 1,577 9.2 -21.2°
Sets 13:09:17 0° 186° (S) 2,442 10.2 -20.9°
